Location: Ostrava
(49.8330°N, 18.2830°E)
Time: 19:58:31
(UTC+01:00)

ISS - Visible Passes

Search period start: 12 December 2025 00:00
Search period end: 22 December 2025 00:00
Orbit: 416 x 420 km, 51.6° (Epoch: 12 December)

Date Brightness Start Highest point End Pass type
(mag) Time Alt. Az. Time Alt. Az. Time Alt. Az.
12 Dec -0.6 06:27:47 10° S 06:29:56 16° SE 06:32:05 10° E visible
13 Dec -0.2 05:41:35 10° SE 05:42:13 10° SE 05:42:51 10° ESE visible
14 Dec -1.9 06:27:23 10° SSW 06:30:27 33° SSE 06:33:31 10° E visible
15 Dec -1.4 05:39:52 10° SSW 05:42:35 23° SE 05:45:18 10° E visible
16 Dec -1.0 04:53:42 14° SSE 04:54:44 15° SE 04:56:49 10° E visible
16 Dec -3.3 06:27:41 10° WSW 06:31:00 64° SSE 06:34:22 10° ENE visible
17 Dec -2.8 05:41:15 23° SW 05:43:01 46° SSE 05:46:16 10° ENE visible
18 Dec -1.9 04:55:35 30° SE 04:55:35 30° SE 04:58:04 10° E visible
18 Dec -3.8 06:28:32 12° W 06:31:36 79° NNW 06:34:59 10° ENE visible
19 Dec -3.8 05:42:40 49° WSW 05:43:28 83° SSE 05:46:52 10° ENE visible
20 Dec -2.0 04:56:39 33° E 04:56:39 33° E 04:58:41 10° ENE visible
20 Dec -3.7 06:29:35 16° W 06:32:10 63° N 06:35:31 10° ENE visible
21 Dec -3.8 05:43:28 58° WNW 05:43:56 69° N 05:47:19 10° ENE visible
